Wind_Speed
19 17 13 12 13 15 17 16 14 14 13 12 13 13 13 13 13 12 10 10 10 9 9 9 9 9 8 8 8 7 7 7 7 7 7 7 6 6 7 8 8 8
20 18 14 13 14 15 17 17 15 15 14 13 14 13 13 14 13 12 11 11 10 10 9 10 11 10 10 9 8 7 7 8 8 8 9 9 8 7 7 8 9 9
21 19 16 15 15 16 17 17 16 16 16 15 15 14 15 16 14 12 12 11 10 9 9 11 12 12 10 9 9 8 8 8 8 8 9 9 9 8 8 8 9 9
22 19 17 16 15 17 18 18 16 16 17 16 16 15 15 15 14 12 12 11 10 9 8 11 13 13 12 11 10 10 10 11 10 10 9 9 9 9 9 9 9 10
21 20 18 16 16 17 18 18 16 15 17 16 16 15 15 14 14 13 13 12 10 8 8 11 14 14 13 13 13 13 12 12 12 11 10 11 10 9 11 11 10 11
22 21 19 17 17 17 18 18 15 14 15 15 15 15 15 14 13 13 13 12 10 9 8 11 14 14 14 14 14 13 12 11 12 11 10 11 12 12 14 14 13 13
23 21 20 18 16 16 17 17 16 14 14 14 15 15 15 14 13 12 12 12 11 9 8 11 14 15 15 14 14 13 12 11 11 10 9 11 12 12 14 15 13 13
23 22 20 18 17 17 17 16 16 15 14 14 15 15 15 14 13 13 13 12 11 9 9 11 14 15 15 14 13 12 12 11 10 9 10 11 11 11 12 15 15 15
23 22 21 19 18 17 16 16 16 15 14 13 14 15 15 14 13 13 14 13 12 10 10 12 14 15 15 13 12 11 11 10 10 10 11 11 11 10 10 12 14 15
22 22 21 20 19 17 16 16 16 16 14 13 12 14 14 14 13 13 14 13 13 11 11 12 14 15 15 13 13 11 10 10 11 12 12 10 10 10 10 10 12 13
22 21 21 21 19 17 16 16 16 16 15 12 12 13 14 14 13 13 13 13 13 11 11 12 13 15 15 14 14 13 12 11 12 13 13 12 11 11 10 10 10 10
22 20 21 21 19 18 18 18 17 17 15 12 12 12 13 13 13 13 13 12 11 11 10 11 13 14 15 15 15 14 14 13 14 14 13 13 12 11 10 10 9 9
23 22 22 21 19 18 19 19 18 17 15 13 11 11 11 12 12 13 12 11 10 10 10 11 13 15 16 16 15 14 14 14 14 14 13 12 11 10 9 9 8 7
24 25 25 23 20 19 20 19 18 17 16 14 12 11 11 10 10 12 12 11 11 10 10 12 14 15 16 15 13 13 13 13 12 12 10 10 10 9 9 8 6 6
23 24 24 22 21 21 21 19 18 18 17 15 13 13 12 11 9 10 10 11 11 11 11 12 13 13 16 15 13 12 12 10 10 10 9 8 8 8 8 8 6 6
23 23 23 22 22 22 21 20 20 19 18 15 13 13 13 12 10 10 9 9 10 10 11 12 14 16 19 19 16 14 12 9 10 10 8 8 7 7 8 8 8 8
23 23 24 24 24 24 23 22 21 20 19 16 14 12 12 11 11 11 11 11 11 11 11 13 16 19 19 19 18 16 14 12 10 9 9 9 8 7 7 8 9 9
19 20 22 23 23 24 24 23 23 21 18 16 14 13 12 11 10 11 12 12 12 13 13 14 16 17 17 17 17 15 14 13 11 10 10 10 9 9 8 8 9 10
16 18 20 21 22 22 22 21 20 16 14 15 14 13 12 12 10 10 9 10 11 13 13 13 13 14 16 16 15 15 14 13 12 12 12 11 10 10 10 9 10 10
14 15 17 19 19 19 17 15 16 16 16 17 16 14 13 13 12 11 10 9 10 10 9 9 11 12 13 15 15 15 14 14 14 14 13 13 13 13 12 12 13 12
11 12 13 14 15 14 13 12 13 14 15 16 15 14 14 14 13 13 12 11 11 10 10 10 10 11 12 14 14 14 14 14 14 14 14 14 15 15 16 16 17 17
9 9 9 10 10 10 10 10 10 12 13 13 13 12 13 13 13 14 15 13 13 14 15 15 15 14 13 13 14 14 14 14 14 14 14 15 16 16 17 18 19 19
10 11 11 11 10 9 8 8 10 11 12 12 12 12 13 13 13 14 15 15 14 14 15 15 15 14 14 13 14 14 14 14 14 15 15 16 17 18 19 20 21 22
12 12 12 11 11 9 8 8 9 10 10 10 11 12 13 13 12 11 12 13 13 12 13 13 13 13 13 13 13 13 14 15 15 16 17 18 19 19 20 19 20 22
13 12 11 10 10 9 8 8 9 9 9 9 10 10 10 10 11 10 10 10 10 11 11 12 12 11 11 12 13 13 14 15 16 16 17 18 18 18 18 16 16 17
13 12 12 11 10 9 8 8 7 7 6 7 7 6 6 7 8 9 9 9 9 10 12 12 12 12 13 14 16 16 16 17 17 16 16 16 16 16 16 15 15 15
Wind_Direction
191 185 184 179 177 180 175 168 169 171 168 168 169 167 169 171 170 173 177 177 178 179 174 167 167 172 170 168 174 171 161 157 152 144 141 145 154 164 169 175 178 175
189 187 183 180 182 182 174 167 166 167 166 165 166 167 172 173 171 176 183 178 176 181 177 168 166 169 168 166 167 166 159 151 146 141 136 135 139 147 158 167 171 170
185 187 185 182 182 178 170 167 166 165 166 166 167 170 172 170 168 175 182 175 174 181 178 172 171 166 162 164 162 159 152 147 145 141 136 135 135 137 145 154 160 161
183 186 186 182 179 176 170 167 166 167 169 168 168 170 169 166 164 170 176 171 172 178 173 171 169 162 157 156 154 150 142 136 133 128 128 134 136 134 136 141 148 149
179 179 182 184 180 176 172 168 168 171 171 170 168 169 169 166 163 167 170 167 170 171 164 166 165 158 153 152 149 144 137 134 131 123 121 125 129 131 130 130 136 138
176 174 183 187 182 177 172 170 174 174 173 172 171 171 170 168 167 168 167 167 169 166 156 160 161 154 152 153 148 141 137 137 133 124 119 120 124 129 127 123 128 133
177 177 185 187 181 178 173 173 179 177 174 174 174 175 172 168 168 169 169 169 168 161 155 160 161 157 154 152 148 144 141 138 132 127 126 122 120 126 128 125 125 129
179 182 186 184 180 179 176 178 181 177 175 174 175 176 171 167 170 170 170 171 167 161 156 157 160 158 154 151 150 151 148 142 136 135 135 129 121 123 129 127 125 125
182 184 185 183 181 180 180 181 180 175 171 169 171 172 168 167 172 171 169 170 167 164 159 156 160 162 157 154 154 153 151 150 147 144 142 136 128 125 129 131 129 127
185 186 183 181 179 180 182 181 179 174 166 161 164 167 168 170 172 169 170 170 167 167 164 159 164 166 160 156 157 154 150 149 147 145 143 140 137 135 134 135 133 131
188 186 180 178 177 180 182 179 178 173 164 160 159 163 169 171 168 168 171 171 168 169 170 164 164 166 163 162 161 154 147 143 143 146 147 147 149 144 140 140 141 142
184 180 179 180 179 179 178 177 177 173 165 160 156 159 166 168 168 170 171 170 168 169 173 170 165 163 163 163 160 153 148 146 145 147 151 152 153 151 150 151 150 153
182 176 178 183 183 181 178 176 175 172 168 163 157 156 158 162 169 171 167 167 170 169 172 173 168 165 163 162 159 155 152 151 150 150 151 153 153 153 156 156 155 164
183 179 180 181 182 182 180 176 174 173 172 167 160 155 154 158 168 171 167 167 168 167 171 175 170 166 164 160 159 162 161 159 158 155 157 160 159 160 163 157 156 167
185 187 184 178 178 183 183 180 179 178 176 172 166 161 156 155 162 169 170 169 167 166 170 171 165 167 169 164 162 167 166 165 167 165 166 169 170 174 178 173 169 175
183 188 185 179 180 184 183 183 184 182 179 175 172 167 161 158 159 162 165 168 166 164 167 169 171 177 178 174 172 173 170 174 179 178 177 177 181 188 193 195 195 195
184 187 187 184 185 187 187 186 185 182 179 177 174 170 164 161 161 161 163 166 164 162 169 179 183 184 181 181 184 183 181 184 186 189 193 192 193 196 201 207 207 206
182 185 185 184 186 189 190 186 181 177 175 177 175 169 165 161 162 162 163 169 173 174 180 185 187 187 187 188 191 192 193 195 196 203 207 206 206 205 207 211 210 210
174 178 180 182 185 188 187 182 182 184 186 187 181 174 171 169 168 167 166 173 179 179 182 186 189 195 199 200 201 203 204 203 205 209 211 213 216 216 216 218 216 218
173 175 181 187 191 195 195 193 202 216 222 217 209 202 194 185 180 182 187 195 192 184 183 189 197 205 208 209 210 210 210 209 212 215 217 222 226 226 228 230 228 229
169 179 188 193 198 205 207 201 201 209 214 213 210 208 204 201 199 199 205 214 212 211 218 223 228 232 227 221 218 217 218 221 225 229 232 236 239 239 240 242 242 243
151 163 175 181 186 192 191 180 175 181 189 194 200 203 204 209 211 209 213 220 217 217 225 233 240 244 239 233 231 230 232 235 239 243 244 246 249 250 251 251 251 250
143 145 146 150 155 159 162 163 168 178 184 190 200 204 198 198 204 207 213 221 222 220 226 233 239 242 242 241 239 239 241 244 246 248 250 252 254 256 257 257 255 253
133 136 135 137 143 145 148 158 168 177 182 186 193 196 192 192 199 204 208 215 218 219 224 230 235 240 243 244 244 243 244 246 249 251 252 254 257 258 258 259 260 260
117 121 125 130 135 137 141 151 158 166 176 181 183 188 191 192 199 206 209 213 216 221 229 235 238 242 245 247 251 253 254 255 256 255 254 255 256 259 261 263 266 268
115 118 121 124 127 129 134 144 150 155 170 180 180 184 191 193 199 211 219 223 228 237 244 246 248 251 254 255 258 258 256 257 257 256 256 257 259 261 263 264 266 270
Height
1533 1535 1537 1538 1539 1540 1540 1542 1544 1545 1546 1548 1549 1550 1551 1551 1552 1552 1553 1553 1554 1554 1555 1556 1557 1557 1558 1559 1559 1560 1561 1561 1562 1563 1564 1565 1566 1566 1567 1568 1570 1571
1533 1535 1537 1539 1539 1540 1540 1541 1543 1544 1546 1548 1549 1550 1551 1551 1552 1552 1553 1553 1554 1554 1555 1555 1556 1557 1558 1559 1559 1560 1561 1562 1562 1563 1564 1565 1565 1566 1567 1568 1569 1570
1532 1535 1537 1538 1539 1540 1541 1541 1543 1544 1545 1547 1548 1549 1550 1551 1552 1552 1553 1553 1553 1553 1554 1555 1556 1557 1558 1559 1560 1560 1561 1562 1563 1563 1564 1565 1565 1566 1567 1568 1569 1570
1532 1534 1536 1538 1539 1540 1541 1542 1543 1544 1545 1546 1547 1548 1549 1550 1551 1552 1553 1553 1553 1553 1554 1555 1556 1557 1558 1559 1560 1561 1561 1563 1563 1564 1565 1565 1565 1566 1566 1567 1568 1569
1531 1533 1535 1538 1539 1540 1541 1542 1543 1544 1545 1546 1547 1548 1549 1550 1551 1552 1552 1553 1553 1553 1554 1554 1556 1557 1558 1560 1561 1561 1562 1563 1564 1565 1565 1565 1566 1566 1566 1567 1568 1569
1530 1532 1535 1537 1538 1540 1541 1542 1543 1544 1545 1546 1546 1548 1549 1550 1551 1551 1552 1553 1553 1553 1554 1554 1555 1557 1558 1559 1561 1562 1563 1564 1564 1565 1566 1566 1566 1566 1567 1568 1569 1569
1529 1531 1534 1536 1538 1539 1540 1541 1543 1544 1545 1545 1546 1547 1548 1549 1551 1551 1552 1553 1553 1553 1554 1554 1555 1557 1558 1559 1561 1562 1563 1564 1565 1566 1567 1567 1567 1567 1567 1568 1569 1570
1528 1531 1533 1535 1537 1538 1539 1541 1542 1543 1544 1545 1546 1547 1548 1549 1550 1551 1552 1552 1553 1554 1554 1555 1555 1557 1558 1560 1561 1562 1563 1564 1565 1566 1567 1567 1568 1568 1568 1569 1570 1571
1527 1530 1532 1534 1536 1538 1539 1540 1542 1543 1544 1544 1545 1546 1547 1549 1550 1550 1551 1552 1553 1554 1554 1555 1555 1557 1558 1560 1561 1562 1563 1564 1565 1566 1567 1568 1569 1570 1570 1570 1570 1572
1527 1529 1532 1534 1535 1537 1539 1540 1542 1543 1544 1544 1545 1545 1547 1548 1549 1550 1551 1552 1552 1553 1554 1554 1555 1556 1558 1559 1561 1562 1563 1564 1564 1565 1567 1568 1570 1570 1571 1571 1571 1572
1527 1530 1532 1534 1535 1537 1538 1540 1541 1542 1543 1544 1545 1545 1546 1547 1548 1550 1551 1552 1552 1553 1554 1555 1555 1556 1558 1559 1560 1561 1562 1563 1564 1565 1567 1568 1569 1570 1571 1572 1572 1573
1526 1530 1533 1534 1535 1536 1538 1539 1541 1542 1543 1544 1544 1545 1546 1547 1548 1550 1551 1552 1553 1554 1555 1555 1556 1556 1558 1559 1560 1561 1562 1563 1564 1565 1566 1567 1569 1570 1570 1571 1572 1573
1526 1528 1531 1534 1535 1536 1537 1539 1540 1541 1542 1543 1544 1544 1545 1547 1548 1549 1551 1552 1553 1554 1555 1555 1556 1556 1557 1559 1560 1561 1562 1563 1564 1565 1566 1567 1568 1569 1570 1571 1572 1572
1525 1527 1528 1532 1535 1536 1537 1538 1539 1540 1541 1542 1543 1544 1546 1547 1549 1549 1550 1552 1553 1553 1554 1555 1556 1557 1557 1559 1560 1561 1562 1563 1564 1565 1566 1567 1568 1569 1570 1570 1572 1572
1524 1526 1527 1530 1533 1536 1537 1538 1539 1540 1541 1542 1543 1544 1545 1547 1548 1549 1550 1551 1552 1553 1554 1555 1556 1557 1557 1558 1560 1561 1562 1563 1564 1565 1566 1567 1568 1568 1569 1570 1571 1572
1521 1524 1526 1529 1532 1535 1537 1537 1539 1540 1541 1542 1543 1544 1545 1546 1547 1549 1550 1551 1552 1552 1553 1554 1555 1555 1556 1557 1559 1560 1562 1563 1564 1565 1566 1567 1567 1568 1568 1569 1570 1571
1519 1522 1524 1526 1529 1533 1535 1536 1537 1539 1540 1542 1543 1543 1544 1545 1546 1547 1549 1551 1551 1552 1552 1553 1553 1554 1555 1557 1558 1559 1561 1562 1563 1564 1565 1566 1567 1567 1568 1568 1569 1570
1519 1521 1523 1525 1528 1531 1533 1534 1536 1538 1540 1541 1542 1543 1544 1545 1546 1547 1548 1549 1550 1550 1550 1551 1553 1554 1555 1556 1557 1559 1560 1561 1562 1564 1564 1565 1566 1567 1567 1568 1568 1569
1518 1520 1523 1526 1528 1530 1532 1534 1536 1538 1540 1541 1542 1543 1544 1545 1546 1547 1548 1549 1548 1549 1549 1551 1553 1554 1555 1556 1557 1558 1559 1561 1562 1563 1564 1565 1565 1566 1566 1567 1567 1568
1518 1521 1524 1526 1528 1530 1532 1534 1536 1537 1539 1540 1541 1542 1543 1544 1545 1547 1548 1549 1548 1548 1549 1550 1552 1554 1555 1556 1557 1558 1559 1560 1561 1562 1563 1564 1564 1565 1565 1565 1566 1566
1519 1521 1524 1526 1527 1529 1531 1533 1535 1535 1537 1538 1539 1541 1542 1543 1544 1546 1547 1548 1548 1548 1549 1551 1552 1554 1555 1555 1556 1557 1558 1559 1560 1561 1562 1562 1563 1563 1564 1564 1564 1564
1520 1522 1524 1526 1527 1529 1530 1532 1533 1535 1536 1538 1539 1540 1541 1542 1543 1545 1546 1547 1547 1548 1551 1552 1553 1554 1554 1555 1555 1556 1557 1558 1559 1559 1560 1561 1561 1562 1562 1562 1562 1562
1522 1523 1525 1527 1528 1530 1531 1532 1533 1535 1536 1537 1538 1539 1540 1541 1542 1544 1544 1545 1546 1548 1550 1551 1552 1553 1553 1553 1554 1555 1556 1556 1557 1558 1558 1559 1559 1559 1560 1560 1560 1560
1523 1525 1526 1528 1529 1530 1532 1533 1534 1535 1536 1537 1538 1539 1539 1540 1542 1542 1543 1544 1545 1547 1548 1549 1550 1551 1551 1552 1552 1553 1554 1554 1555 1555 1556 1556 1556 1557 1557 1557 1557 1557
1526 1527 1528 1529 1530 1531 1532 1534 1535 1536 1536 1537 1537 1538 1539 1540 1541 1541 1542 1543 1545 1546 1547 1547 1548 1549 1550 1550 1551 1551 1552 1552 1552 1553 1553 1553 1554 1554 1554 1555 1555 1554
1528 1529 1530 1531 1532 1532 1533 1534 1535 1536 1536 1536 1537 1538 1539 1539 1540 1541 1542 1543 1544 1544 1545 1545 1547 1548 1548 1548 1548 1549 1549 1549 1549 1550 1551 1551 1551 1551 1551 1552 1553 1552